User: anonymous
Location: Unspecified
(0.0000°N, 0.0000°E)
Time: 11:22:46
(UTC+00:00)
Language:

TECSAR - Orbit

View from above orbital plane
View from above orbital plane
View from above satellite
View from above satellite

Ground track
Ground track

The orbit data is extracted from the following two-line orbital elements,

1 32476U 08002A   14151.06106018 0.00090000  00000-0  18496-2 0    08
2 32476  41.0366 122.4499 0007011 318.6982  41.3012 15.45069563    06
Epoch (UTC): 31 May 2014 01:27:55
Eccentricity: 0.0007011
inclination: 41.0366°
perigee height: 426 km
apogee height: 436 km
right ascension of ascending node: 122.4499°
argument of perigee: 318.6982°
revolutions per day: 15.45069563
mean anomaly at epoch: 41.3012°
orbit number at epoch: 0

The dashed part of the orbit path shows where the satellite is in the earth's shadow,  

DLR